TimeMDT,TemperatureF,Dew PointF,Humidity,Sea Level PressureIn,VisibilityMPH,Wind Direction,Wind SpeedMPH,Gust SpeedMPH,PrecipitationIn,Events,Conditions,WindDirDegrees,DateUTC
12:00 AM,49,41,64,,,SSW,8.1,,,,,210,2013-06-23 06:00:00
12:00 AM,48.6,40.6,74,-9999,-9999.0,SSW,8.1,-,N/A,,Unknown,210,2013-06-23 06:00:00
1:00 AM,51.8,40.1,64,-9999,-9999.0,SW,12.7,-,N/A,,Unknown,230,2013-06-23 07:00:00
2:00 AM,50.9,39.6,65,-9999,-9999.0,SW,10.4,-,N/A,,Unknown,230,2013-06-23 08:00:00
3:00 AM,50.9,39.9,66,-9999,-9999.0,SW,12.7,-,N/A,,Unknown,230,2013-06-23 09:00:00
4:00 AM,51.4,39.2,63,-9999,-9999.0,SW,15.0,23.0,N/A,,Unknown,230,2013-06-23 10:00:00
5:00 AM,50.9,39.6,65,-9999,-9999.0,SW,15.0,21.9,N/A,,Unknown,230,2013-06-23 11:00:00
6:00 AM,51,40,55,,,SW,15.0,,,,,220,2013-06-23 12:00:00
6:00 AM,50.9,39.6,65,-9999,-9999.0,SW,15.0,21.9,N/A,,Unknown,220,2013-06-23 12:00:00
7:00 AM,52.3,40.6,64,-9999,-9999.0,SW,16.1,25.3,N/A,,Unknown,230,2013-06-23 13:00:00
8:00 AM,55.0,40.8,59,-9999,-9999.0,SW,13.8,20.7,N/A,,Unknown,220,2013-06-23 14:00:00
9:00 AM,57.9,42.3,56,-9999,-9999.0,SW,11.5,18.4,N/A,,Unknown,230,2013-06-23 15:00:00
10:00 AM,60.4,43.5,54,-9999,-9999.0,SW,13.8,-,N/A,,Unknown,220,2013-06-23 16:00:00
11:00 AM,62.6,42.1,47,-9999,-9999.0,SW,10.4,-,N/A,,Unknown,220,2013-06-23 17:00:00
12:00 PM,64,43,34,,,SW,15.0,,,,,220,2013-06-23 18:00:00
12:00 PM,64.0,42.8,46,-9999,-9999.0,SW,15.0,20.7,N/A,,Unknown,220,2013-06-23 18:00:00
1:00 PM,65.3,43.0,44,-9999,-9999.0,SSW,16.1,25.3,N/A,,Unknown,210,2013-06-23 19:00:00
2:00 PM,67.1,41.9,40,-9999,-9999.0,SSW,13.8,20.7,N/A,,Unknown,200,2013-06-23 20:00:00
3:00 PM,68.4,41.2,37,-9999,-9999.0,SSW,12.7,19.6,N/A,,Unknown,210,2013-06-23 21:00:00
4:00 PM,68.9,42.6,39,-9999,-9999.0,SW,13.8,20.7,N/A,,Unknown,220,2013-06-23 22:00:00
5:00 PM,68.5,41.2,37,-9999,-9999.0,SSW,15.0,20.7,N/A,,Unknown,210,2013-06-23 23:00:00
6:00 PM,65,51,50,,,NNE,9.2,,,,,20,2013-06-24 00:00:00
6:00 PM,64.9,50.7,60,-9999,-9999.0,NNE,9.2,-,N/A,,Unknown,20,2013-06-24 00:00:00
7:00 PM,60.6,48.2,64,-9999,-9999.0,NNE,3.5,-,N/A,,Unknown,30,2013-06-24 01:00:00
8:00 PM,63.0,49.3,61,-9999,-9999.0,ENE,5.8,-,N/A,,Unknown,70,2013-06-24 02:00:00
9:00 PM,58.6,50.4,74,-9999,-9999.0,ENE,4.6,-,N/A,,Unknown,60,2013-06-24 03:00:00
10:00 PM,56.1,50.2,80,-9999,-9999.0,NE,1.2,-,N/A,,Unknown,40,2013-06-24 04:00:00
11:00 PM,55.8,49.1,78,-9999,-9999.0,ENE,4.6,-,N/A,,Unknown,70,2013-06-24 05:00:00